Regional Weather Roundup
Issued by NWS Wakefield, VA

Home | Current Version | Previous Version | Graphics & Text | Print | Product List | Glossary On
Versions: 1 2 3 4 5 6 7 8 9 10 11 12 13 14 15 16 17 18 19 20 21 22 23 24 25 26 27 28
000
ASUS41 KAKQ 041716
RWRAKQ

REGIONAL WEATHER ROUNDUP
NATIONAL WEATHER SERVICE WAKEFIELD VA
1200 PM EST SUN DEC 04 2016

Note: "fair" indicates few or no clouds below 12,000 feet with no
significant weather and/or obstructions to visibility. * = Denotes
station may not report precipitation (e.g., rain,snow,etc.),
thunder or fog.

VAZ042-051-052>054-056-041800-
NORTHERN VIRGINIA

CITY           SKY/WX    TMP DP  RH WIND       PRES   REMARKS
WASH NATIONAL  CLOUDY    45  31  58 CALM      30.26F
DULLES         CLOUDY    44  27  51 N3        30.26F
FORT BELVOIR   CLOUDY    46  28  50 W3        30.26F
QUANTICO       MOSUNNY   44  30  57 CALM      30.28F
FREDERICKSBRG* CLOUDY    43  31  64 CALM      30.26F
STAFFORD*      CLOUDY    42  31  63 CALM      30.30F
WARRENTON      MOSUNNY   45  26  47 W3        30.25F
CULPEPER*      CLOUDY    44  30  56 CALM      30.26F
MANASSAS*      SUNNY     43  32  65 CALM      30.27F
LEESBURG*      CLOUDY    45  32  61 CALM      30.26F
WINCHESTER     CLOUDY    37  28  70 CALM      30.25F
FRONT ROYAL*   FAIR      39  30  70 CALM      30.24F
LURAY*         FAIR      37  32  81 CALM      30.24F
$$

VAZ048-049-060>072-079>083-041800-
CENTRAL AND SOUTH CENTRAL VIRGINIA

CITY           SKY/WX    TMP DP  RH WIND       PRES   REMARKS
RICHMOND       NOT AVBL
CHESTERFIELD*  FAIR      43  18  36 CALM      30.30F
PETERSBURG*    CLOUDY    42  29  61 N3        30.30S
HANOVER        CLOUDY    42  27  55 CALM      30.29F
TAPPAHANNOCK*  CLOUDY    43  28  55 NW3       30.27F
QUINTON*       FAIR      41  30  64 CALM      30.28F
CHARLOTTSVILLE CLOUDY    43  30  60 CALM      30.25F
GORDONSVILLE*  FAIR      43  30  61 SW3       30.26F
ORANGE*          N/A     43  32  65 CALM      30.27F
LOUISA*        CLOUDY    45  36  70 CALM      30.25F
BUMPASS*       FAIR      42  30  63 W3        30.27F
FARMVILLE*     CLOUDY    43  32  66 CALM      30.27F
CREWE*         CLOUDY    41  31  68 CALM      30.28F
FORT PICKETT*  CLOUDY    41  25  52 CALM      30.28F
CHASE CITY*    CLOUDY    42  28  57 CALM      30.27F
CLARKSVILLE*   CLOUDY    43  32  65 CALM      30.27F
SOUTH HILL*    CLOUDY    42  32  66 CALM      30.33F
LAWRENCEVILLE* CLOUDY    43  31  61 CALM      30.27F
EMPORIA*       PTSUNNY   43  32  65 CALM      30.29F
$$

VAZ088>098-041800-
SOUTHEAST VIRGINIA

CITY           SKY/WX    TMP DP  RH WIND       PRES   REMARKS
NORFOLK        CLOUDY    47  37  68 NW3       30.26F
VIRGINIA BEACH CLOUDY    48  32  53 N5        30.25F
NORFOLK NAVAL  CLOUDY    47  36  65 NW6       30.28F
WEST POINT*    CLOUDY    42  32  67 CALM      30.29F
SALUDA*        FAIR      42  33  71 NW3       30.27F
NEWPORT NEWS   CLOUDY    45  33  63 CALM      30.27F
LANGLEY AFB    CLOUDY    45  34  65 NW3       30.26F
FORT EUSTIS    CLOUDY    45  32  59 CALM      30.25F
WILLIAMSBURG*  CLOUDY    45  34  65 CALM      30.28F
HR EXEC AP*    FAIR      46  34  61 NW3       30.26S
FRANKLIN*      CLOUDY    45  32  61 NW3       30.28F
US460-WAKEFLD  CLOUDY    43  32  65 VRB3      30.28F
$$

VAZ020-022-025-037-045-041800-
WEST CENTRAL AND SOUTHWEST VIRGINIA

CITY           SKY/WX    TMP DP  RH WIND       PRES   REMARKS
STAUNTON*      MOSUNNY   36  28  72 SW5       30.25F
WAYNESBORO*    CLOUDY    36  26  66 CALM      30.23F
HOT SPRINGS VA CLOUDY    30  28  93 S7        30.12F
LYNCHBURG      CLOUDY    41  28  60 CALM      30.27F
DANVILLE       LGT RAIN  41  33  73 E5        30.26F
SOUTH BOSTON*  CLOUDY    43  30  59 N3        30.27F
MARTINSVILLE   PTSUNNY   40  30  68 E3        30.27F
ROANOKE        CLOUDY    39  29  67 SE6       30.27F
BLACKSBURG     CLOUDY    35  31  84 SE6       30.24F
DUBLIN*        CLOUDY    37  34  89 E3        30.21F
MARION*        LGT RAIN  36  35  94 E8        30.17F
HILLSVILLE*    MIX PCPN  35  34  94 CALM      30.16F
RICHLANDS*     RAIN      41  40  96 SE6       30.08F
WISE*          CLOUDY    41  41 100 SE9       30.08F
ABINGDON*      CLOUDY    42  40  93 E9        30.12F
$$

MDZ021>025-VAZ099-100-041800-
SOUTHERN MARYLAND AND THE DELMARVA PENINSULA

CITY           SKY/WX    TMP DP  RH WIND       PRES   REMARKS
PATUXENT RIVER CLOUDY    45  30  55 NW3       30.26F
BAY BRIDGE APT CLOUDY    45  30  57 N6        30.25F
LEONARDTOWN    CLOUDY    43  30  61 CALM      30.27F
DOVER          MOSUNNY   47  31  55 N8        30.21F
GEORGETOWN     MOSUNNY   48  28  46 MISG      30.23F
EASTON         SUNNY     48  34  57 NW3       30.28F
CAMBRIDGE      CLOUDY    45  32  61 W3        30.24F
SALISBURY      CLOUDY    46  31  55 N5        30.24F
OCEAN CITY     MOSUNNY   47  32  56 N6        30.24F
WALLOPS ISLAND CLOUDY    45  33  63 NW5       30.25F
ACCOMACK*      CLOUDY    45  34  65 CALM      30.25F
$$

NCZ012>017-030>032-041800-
NORTH CENTRAL AND EASTERN NORTH CAROLINA

CITY           SKY/WX    TMP DP  RH WIND       PRES   REMARKS
ROANOKE RAPIDS FAIR      45  32  61 CALM      30.28F
RALEIGH        LGT RAIN  46  32  58 CALM      30.26F
ELIZABETH CITY PTSUNNY   49  38  65 VRB3      30.26F
AHOSKIE*       MOSUNNY   44  32  64 CALM      30.28F
EDENTON*       PTSUNNY   50  38  65 CALM      30.27F
CURRITUCK*     MOSUNNY   48  37  65 CALM      30.26F
KILL DEVIL HLS MOSUNNY   50  41  70 N3        30.24F
MANTEO         MOSUNNY   49  40  69 N6        30.26F
CAPE HATTERAS  CLOUDY    51  41  68 VRB5      30.24F
TARBORO*       NOT AVBL
GOLDSBORO      CLOUDY    46  41  82 CALM      30.25F
WASHINGTON     CLOUDY    49  38  65 NE3       30.27F
GREENVILLE     CLOUDY    46  36  66 CALM      30.27F
NEW BERN       CLOUDY    49  38  65 NE3       30.26F
WILMINGTON     CLOUDY    48  39  71 N7        30.26F
$$

VAZ048-041800-
ELSEWHERE

CITY           SKY/WX    TMP DP  RH WIND       PRES   REMARKS
HARRISBURG PA  CLOUDY    44  29  55 W8        30.24F
BALTIMORE      CLOUDY    46  29  51 N6        30.24F
ANNAPOLIS      CLOUDY    48  29  47 NW5       30.24F
ANDREWS AFB    CLOUDY    45  28  51 NW3       30.24F
PHILADELPHIA   CLOUDY    46  25  43 NW9       30.23F
HENDERSON NC   CLOUDY    41  28  61 SE5       30.27F
GREENSBORO     CLOUDY    41  36  82 CALM      30.23F
ROCKY MOUNT    CLOUDY    46  34  62 E3        30.27F
$$

VAZ100-041800-
MARINE

STATION/POSITION TIME  TEMP    WIND        PRES    WAVE   SWELL
                       AIR SEA DIR/SP/G            HT/PER HT/PER
                 (UTC) (F)     (DEG/KT/KT) (MB)    (FT/S) (FT/S)
BRANDYWINE LGT   1554   44     340/  8/ 12   N/A
CAPE MAY NJ      1642   46 47  320/  7/ 10 1023.0F
LEWES DE         1642   44 48  340/  9/ 10 1023.5F
OCEAN-CITY-INLET 1642   45 50   30/  5/  7 1024.2F
WACHAPREAGUE VA  1642   45 49  270/  2/  3 1024.4F
THOMAS POINT MD  1700   44 48   30/  5/  5   N/A
GOOSES REEF MD   1650   44      40/  6/ 10 1025.3F
COVE POINT MD    1642   43     360/  7/  8 1025.3F
SOLOMONS ISLAND  1642   44 51  290/  4/  5   N/A
BISHOPS HEAD MD  1642   45 43  360/  4/  6 1024.7F
PINEY POINT MD   1636          320/  4/  6   N/A
POTOMAC MD       1650   44     300/  4/  6 1024.0F
CAMBRIDGE MD     1642   44 47  320/  4/  6 1023.6F
LEWISETTA VA     1642   43 48  330/  4/  5 1024.7F
RAPPAHANNOCK LGT 1636           20/  6/  7 1025.0F
STINGRAY PT      1650   43     340/  4/  6 1025.1F
YORK RVR RNG VA  1642   43     340/  6/  7 1024.4F
YORKTOWN VA      1642   43 52  360/  3/  5 1024.6F
JAMESTOWN VA     1650   42     280/  4/  6   N/A
DOMINION TERM VA 1642   44     290/  5/  6 1024.9F
KIPTOPEKE VA     1636      50  340/  4/  7   N/A
CHES BAY BRIDGE  1642   45 53  340/  7/  9 1024.5F
CAPE HENRY VA    1642   46     350/  6/  9   N/A
WILLOUBY STN VA  1642   44     330/  3/  4 1025.6F
S CRANEY ISL VA  1642   45     340/  3/  5 1024.7F
CAPE HENRY BUOY  1642      56                N/A     3/ 6
1ST LANDING BUOY 1650   46                 1024.5F
CAPE CHARLES BUO 1656      56                N/A     2/ 6
OFFSHORE WE BUOY 1651      57                N/A     3/ 7
64NM E OF VA BCH 1650   49 60  340/ 10/ 14 1023.4F   4/ 7   3/ 7
DUCK PIER NC     1642   48 54  330/  6/  9 1023.7F
44100 DUCK FRF   1635      57                N/A     4/ 8
OREGON INLET NC  1642   51 54  360/  5/ 10 1024.2F
HATTERAS NC      1642   50 55   10/ 10/ 12 1023.8F
DIAMOND SHLS NC  1650   55 75  360/ 10/ 14 1023.7F   5/ 9   5/ 9
CAPE LOOKOUT NC  1600   51      20/  8/ 10 1024.4F
$$




USA.gov is the U.S. government's official web portal to all federal, state and local government web resources and services.